Hovedside
METAR-TAF:

METAR-TAF

Lufthavner :

Pearson Field

Vancouver, Washington, USA

breddegrad: 45-37-24N, lengdegrad: 122-39-23W, høyde over havet: 7 m

Gjeldene værobservasjon

Denne rapporten ble laget for 20 minutter siden, klokken 11:53 UTC
Flau vind
Temperatur 7°C
Luftfuktighet 76%
Trykk 1015 hPa
Sikt: 16.1 km
Skyfri himmel

METAR: KVUO 221153Z AUTO 00000KT 10SM CLR 07/03 A2998 RMK AO2 SLP151 T00720028 10139 20056 53004

Tid: 05:13 (12:13 UTC)


TAF: fraværende

Værobservasjoner og værvarsel for over 4000 flyplasser (METAR- og TAF-rapporter).

Tilgjengelige stasjoner er representert av de røde og gule prikkene på kartet.

Hold musepekeren over prikken for å se navnet på stasjonen.

Klikk så for å se værobservasjoner og -varsler.

For å forandre kartet kan du klikke på den grønne knappen med svart kryss for å zoome inn, på den grønne knappen med strek for å zoome ut, eller på de grønne pilene for å se tilstøtende kart.


METAR-TAF: